Content
SEND FEEDBACK

Daily
Averages
Monthly
Summary
United States of America

MORRISVILLE, NORTH CAROLINA


Home > North America > United States > North Carolina
Elevation: 387 feet     Latitude: 35 52N     Longitude: 078 47W

WEATHER
 
SELECT A DAY
Number of Records: 196,784;   Date Range: 1/1/95 - 11/25/14
 
SHARE

PRINT THIS DATA

[ ← Previous Day ]
WEATHER ALMANAC - FEBRUARY 28, 2013
[ Next Day → ]
[ °C ]   °F
Weather ElementAverageHighLow
Temperature41.8 °F48 °F (3:51 pm)33.1 °F (11:51 pm)
Dewpoint28.9 °F36 °F (1:51 am)23 °F (3:51 pm)
Humidity62.7 %93 % (5:51 am)37 % (3:51 pm)
Barometer29.77 in29.86 in (9:51 pm)29.70 in (3:51 am)
Wind Speed4.4 mph10.4 mph (12:51 pm)
Wind Gust19.6 mph (3:51 pm)
Weather ElementAverage
Visibility10 mi
Wind DirectionSSE (166.4 °)

Weather ElementTotal
Precipitation---
Heating Degree Days24.5 (Base 65)
Averaged from 22 records on February 28, 2013
WEATHER CONDITIONS BREAKOUT
WIND DIRECTION BREAKOUT
WEATHER BY HOUR - FEBRUARY 28, 2013
[ °C ]   °F
Local TimeTemperatureDewpointHumidityBarometerVisibilityWind DirectionWind SpeedGust SpeedPrecipitationEventsConditions
1:51 AM39.9 °F36.0 °F86 %29.73 in10.0 miCalmScattered Clouds
3:51 AM37.9 °F35.1 °F89 %29.70 in10.0 miSW (230°)3.5 mphPartly Cloudy
4:51 AM37.0 °F34.0 °F89 %29.72 in10.0 miCalmPartly Cloudy
5:51 AM36.0 °F34.0 °F93 %29.74 in10.0 miCalmMostly Cloudy
6:51 AM39.0 °F35.1 °F86 %29.75 in10.0 miWest (270°)3.5 mphMostly Cloudy
7:51 AM41.0 °F34.0 °F76 %29.76 in10.0 miCalmMostly Cloudy
8:51 AM42.8 °F33.8 °F70 %29.77 in10.0 miCalmMostly Cloudy
9:51 AM42.8 °F32.0 °F66 %29.77 in10.0 miWest (270°)4.6 mphMostly Cloudy
10:51 AM45.0 °F30.0 °F56 %29.77 in10.0 miVariable4.6 mphMostly Cloudy
11:51 AM46.9 °F28.9 °F50 %29.77 in10.0 miWNW (300°)9.2 mphOvercast
12:51 PM46.9 °F27.0 °F46 %29.75 in10.0 miWest (270°)10.4 mphMostly Cloudy
1:51 PM46.9 °F27.0 °F46 %29.74 in10.0 miVariable6.9 mph17.3 mphMostly Cloudy
2:51 PM46.9 °F26.1 °F44 %29.74 in10.0 miWest (270°)8.1 mphMostly Cloudy
3:51 PM48.0 °F23.0 °F37 %29.75 in10.0 miWest (270°)10.4 mph19.6 mphMostly Cloudy
4:51 PM46.9 °F24.1 °F41 %29.77 in10.0 miWNW (300°)10.4 mphMostly Cloudy
5:51 PM46.0 °F25.0 °F44 %29.78 in10.0 miVariable5.8 mphMostly Cloudy
6:51 PM42.1 °F25.0 °F51 %29.80 in10.0 miWest (270°)3.5 mphPartly Cloudy
7:51 PM41.0 °F25.0 °F53 %29.82 in10.0 miWest (280°)4.6 mphPartly Cloudy
8:51 PM39.9 °F25.0 °F55 %29.83 in10.0 miWest (280°)3.5 mphPartly Cloudy
9:51 PM37.0 °F25.0 °F62 %29.86 in10.0 miCalmPartly Cloudy
10:51 PM36.0 °F25.0 °F64 %29.85 in10.0 miNW (320°)3.5 mphPartly Cloudy
11:51 PM33.1 °F26.1 °F75 %29.86 in10.0 miNNW (330°)3.5 mphPartly Cloudy
Hourly data recorded from KRDU, located miles away from Morrisville, North Carolina







STORIES FROM OUR PARTNERS